Theta_e
273 272 271 271 270 270 269 268 268 268 267 266 266 266 266 266 266 266 266 266 266 265 266 267 267 268 268 269 270 271 271 270 267 268 271 272 271 271 271 272 273 273 274
272 271 270 270 269 268 267 267 267 266 266 266 265 265 265 265 265 265 265 265 265 265 266 267 267 269 269 270 270 269 269 270 269 267 270 271 271 272 272 271 273 275 274
270 269 269 268 267 266 266 265 265 265 264 264 265 264 264 264 264 265 265 265 266 266 267 267 268 269 268 269 269 269 270 271 270 269 269 272 272 272 271 272 272 271 274
268 267 266 266 265 265 264 264 264 264 263 263 263 263 263 264 264 264 266 266 266 267 269 270 270 269 268 268 269 270 271 269 270 270 270 272 272 271 271 269 269 271 271
265 264 264 264 264 263 263 263 262 262 263 263 263 262 263 263 265 266 268 268 269 269 270 270 269 270 272 272 271 270 270 270 270 271 272 272 271 271 270 272 271 273 275
259 260 261 261 261 261 261 261 261 261 261 261 261 261 262 263 267 270 271 269 269 269 268 268 269 269 270 272 273 274 274 272 272 271 271 271 272 273 274 273 273 272 274
256 258 259 258 259 259 259 260 259 260 260 260 261 261 261 262 268 271 272 270 269 268 268 268 268 269 268 269 271 274 276 277 277 274 272 273 273 275 276 274 275 276 275
256 256 257 256 256 257 258 258 258 259 259 260 260 261 261 262 269 271 272 271 269 269 269 268 268 267 268 269 271 272 272 272 274 280 278 277 276 277 278 278 277 274 275
257 256 257 255 256 257 257 257 258 259 259 259 261 260 260 260 267 271 272 269 269 268 269 269 268 266 270 275 272 270 270 271 278 280 280 280 280 280 278 274 270 264 265
260 258 258 257 255 255 256 257 259 258 259 261 261 260 260 260 266 271 272 271 267 269 267 267 269 268 274 275 271 270 271 272 274 272 273 273 272 272 275 271 271 263 262
263 261 260 259 258 257 257 257 258 258 259 258 259 260 261 262 264 271 273 270 269 266 265 265 265 271 274 274 274 271 274 273 272 269 269 269 268 269 269 268 267 267 264
261 260 259 259 260 261 259 259 260 260 259 259 259 261 264 265 268 270 272 273 272 265 264 265 266 271 272 271 272 274 273 270 269 267 267 266 266 266 268 268 265 262 261
257 257 258 259 261 261 259 259 259 260 260 260 261 263 264 265 265 270 271 273 271 265 265 266 268 269 269 266 270 271 266 264 265 265 265 266 266 265 263 265 266 264 262
256 257 259 259 258 259 260 260 260 260 260 261 264 263 264 264 264 267 270 268 269 264 262 259 264 265 266 265 263 264 263 263 262 262 263 265 267 267 266 266 264 264 260
258 258 258 259 258 258 259 259 261 263 264 265 265 265 264 263 267 272 272 270 267 268 255 252 256 258 258 259 260 261 261 261 260 261 261 262 263 264 265 265 264 259 261
257 258 257 257 257 258 258 258 263 266 268 269 270 269 268 270 272 272 273 272 269 268 249 247 252 255 256 256 256 257 259 258 258 259 259 260 260 261 261 262 263 261 259
256 256 256 257 257 256 257 256 256 260 265 266 268 268 270 270 271 272 271 270 267 261 246 247 249 252 254 255 255 255 255 256 255 255 255 255 256 258 259 258 259 260 259
251 253 254 255 255 255 256 256 256 255 255 257 262 266 268 269 271 271 270 264 253 252 245 246 247 250 252 253 253 252 252 253 252 252 252 251 250 249 253 253 256 252 254
252 253 253 253 254 254 255 255 255 255 255 255 257 261 262 266 269 267 267 256 252 251 248 247 249 249 250 249 250 248 247 248 248 247 247 247 247 247 247 248 251 253 251
252 253 254 251 252 253 254 254 254 255 255 255 256 257 259 265 261 260 260 260 258 256 255 252 251 249 248 247 247 245 245 245 246 246 246 245 245 245 247 246 246 247 246
251 250 252 249 249 252 252 252 253 253 254 255 257 259 268 263 260 260 260 261 261 261 261 258 255 251 249 248 246 244 244 248 246 244 244 244 244 247 244 245 244 243 244
250 247 247 247 250 251 251 252 252 252 254 255 256 258 265 259 260 261 261 262 263 263 263 262 261 258 255 252 250 248 248 248 247 246 245 244 243 243 243 244 244 244 243
249 248 248 247 247 249 250 250 251 252 253 254 256 257 258 259 260 260 261 262 264 264 265 264 263 262 260 256 254 253 252 252 252 249 247 245 243 243 242 244 244 244 244
249 247 248 247 246 247 247 250 252 253 253 254 256 257 258 259 259 260 261 263 264 265 266 267 266 264 263 261 257 255 254 255 253 252 251 249 247 245 242 242 243 243 244
245 246 246 247 244 246 246 247 250 251 252 254 256 257 258 258 259 260 262 263 264 265 266 267 269 270 265 264 262 258 256 259 255 254 252 251 250 248 245 243 242 241 241
246 246 246 245 245 244 244 246 248 250 252 253 256 256 257 258 259 260 261 262 264 264 266 268 270 274 272 266 264 263 260 260 258 256 254 254 253 252 250 248 247 243 242
Wind_Speed
6 7 7 7 8 8 8 9 10 11 11 11 12 12 11 11 11 10 11 12 12 12 12 12 13 14 11 11 11 11 9 10 13 20 12 13 14 14 14 13 14 13 12
5 7 8 8 8 8 9 11 11 11 11 12 12 11 11 11 11 11 11 12 14 14 14 14 15 11 14 13 11 12 12 12 12 20 18 13 14 12 13 14 12 11 11
5 6 8 8 8 9 10 11 11 11 11 11 11 11 12 12 12 11 11 13 14 15 15 15 15 14 14 11 12 13 12 12 12 13 18 13 11 8 11 11 12 12 10
5 6 8 8 9 10 11 11 11 11 11 10 10 11 11 12 13 12 13 14 15 14 14 14 13 12 13 14 14 16 13 15 15 14 14 15 8 6 8 9 10 7 10
5 5 7 9 9 9 10 11 11 10 10 10 11 11 11 11 9 13 13 13 12 13 13 13 13 14 24 22 14 15 18 15 14 15 13 12 11 7 8 5 8 8 9
4 5 6 7 8 9 10 11 11 11 10 10 10 11 12 10 21 23 20 11 11 12 12 12 12 15 15 26 28 31 28 20 20 15 15 13 13 9 6 6 8 7 5
3 5 6 7 8 9 9 9 10 11 10 10 10 10 11 11 22 23 24 10 11 12 12 12 11 9 14 15 26 32 27 30 29 20 18 13 9 7 4 7 7 4 2
4 5 6 6 7 8 9 9 9 9 10 10 10 10 11 10 22 23 23 11 10 12 12 12 12 12 13 21 19 17 20 18 14 13 7 4 1 3 4 5 4 1 1
5 5 6 5 7 7 9 9 9 9 10 8 10 10 11 12 22 23 20 10 11 10 11 9 10 11 22 27 16 18 18 14 14 21 25 25 23 23 17 4 5 4 3
4 5 5 6 6 7 7 9 7 8 9 9 11 10 11 13 19 23 20 8 10 6 7 8 18 18 26 25 14 15 10 9 10 13 13 15 16 16 22 12 6 3 2
7 7 6 6 7 6 6 6 6 8 9 9 10 10 11 10 11 23 24 10 8 6 7 9 9 25 24 23 22 12 13 9 12 8 8 8 9 9 8 8 8 6 4
6 7 6 7 7 7 8 8 8 8 9 9 9 9 7 8 17 18 24 25 18 5 7 8 10 23 22 20 15 21 21 15 8 8 8 9 8 8 8 6 5 3 1
5 7 6 6 8 9 8 8 8 7 7 8 8 8 8 7 9 22 26 15 17 6 7 14 19 18 18 14 21 23 16 10 9 9 8 7 6 5 6 5 6 5 4
5 6 7 6 7 7 7 5 6 7 8 8 8 9 8 8 9 9 9 3 9 4 10 8 12 13 14 13 10 12 9 9 8 7 6 6 6 7 8 7 6 7 4
4 5 5 5 6 6 6 7 7 6 9 9 7 7 8 9 9 19 17 7 7 9 5 3 5 6 8 8 8 8 8 9 9 8 8 8 7 7 8 7 7 4 6
4 4 4 5 6 6 7 7 11 13 18 17 17 15 7 17 22 22 21 16 17 15 4 3 3 5 5 6 7 7 7 8 7 7 7 7 7 7 7 6 5 6 6
3 5 4 5 5 6 7 7 11 11 15 13 18 19 19 19 21 21 19 16 14 9 2 2 2 3 4 4 4 3 4 5 4 5 5 6 6 4 6 6 6 5 6
3 7 4 5 4 5 5 6 5 6 10 11 15 18 17 21 21 19 16 11 5 4 1 2 3 3 3 3 3 2 3 4 3 3 3 3 4 3 4 4 6 4 4
3 3 4 4 4 5 5 5 5 6 7 8 9 11 12 20 19 15 14 1 3 4 3 3 4 4 3 3 3 3 2 3 3 3 3 3 3 3 3 4 4 6 5
2 5 5 4 4 5 3 4 6 6 7 7 8 9 11 9 9 9 6 6 4 5 5 4 4 4 4 4 4 3 3 2 2 2 2 2 3 2 2 3 3 3 4
1 2 4 3 4 4 3 3 5 5 6 7 8 9 21 9 9 8 8 7 7 7 7 5 5 5 4 4 4 4 4 4 3 3 3 2 1 1 1 2 2 2 3
3 2 2 3 4 4 4 3 4 5 6 7 8 9 20 7 7 8 8 8 8 8 7 7 7 6 5 5 6 5 5 5 4 4 3 3 2 1 1 1 1 2 2
2 2 2 2 2 5 4 3 4 4 6 7 7 8 9 8 8 9 9 9 9 9 8 7 7 7 6 6 6 7 7 7 7 5 5 4 3 3 3 2 2 1 1
3 3 3 3 2 3 3 5 5 6 6 7 7 8 8 9 9 11 10 10 10 10 9 8 7 10 8 7 6 6 7 6 5 6 7 5 5 4 3 2 3 3 2
3 3 3 3 2 3 4 3 5 5 6 6 7 7 9 9 9 10 10 10 10 10 12 11 9 11 11 11 9 10 10 12 9 8 6 6 6 7 4 3 3 2 3
3 3 3 2 2 3 3 3 4 5 6 7 7 7 8 9 9 10 10 11 11 12 13 10 12 15 8 8 9 11 11 12 11 12 8 7 7 6 5 5 6 3 4
Wind_Direction
356 335 326 320 318 318 316 315 315 314 312 309 304 302 301 302 301 300 297 297 295 294 288 286 288 293 287 286 288 284 298 296 284 288 280 281 271 264 268 267 266 263 263
338 328 323 319 322 322 322 320 320 315 312 307 307 304 304 303 302 299 302 298 289 289 288 290 290 291 291 295 295 300 292 294 293 296 294 289 269 264 258 261 262 260 260
343 328 323 322 327 326 322 318 318 312 308 305 308 305 307 303 304 302 297 285 284 285 288 288 283 290 293 296 298 295 288 293 290 284 289 291 275 263 267 259 263 261 253
337 333 323 331 334 327 318 318 317 314 309 309 311 307 306 305 309 302 292 285 280 280 280 289 293 293 297 297 293 292 297 297 288 280 280 285 276 259 251 267 275 254 260
345 322 327 330 332 321 322 323 317 314 315 314 314 311 308 305 305 299 295 293 307 305 303 300 301 293 300 304 304 306 296 288 284 282 283 292 283 267 249 248 253 273 271
313 317 310 331 329 324 322 321 315 316 320 319 316 312 309 311 313 312 321 316 311 302 299 296 296 300 301 308 307 301 296 295 295 292 285 278 280 273 260 256 267 280 290
314 315 329 333 325 318 315 316 318 321 319 315 313 314 308 307 313 324 320 316 299 296 300 300 301 300 303 297 295 297 298 302 301 286 266 265 273 265 255 263 266 289 28
321 332 323 318 312 311 319 316 315 317 314 319 310 309 309 307 324 321 319 317 300 305 302 302 303 305 308 306 302 317 313 312 312 358 50 51 196 273 275 294 320 354 321
330 308 308 302 312 316 315 313 313 313 315 310 309 312 310 305 318 322 325 319 305 318 318 322 319 319 307 316 332 321 319 323 347 26 44 49 44 41 34 12 15 40 331
330 310 301 300 293 304 297 307 309 306 304 310 309 310 305 300 311 323 330 326 315 336 322 331 332 326 325 341 338 328 331 350 7 16 24 31 32 31 35 32 7 24 353
329 325 318 311 308 285 290 300 298 300 300 301 300 300 296 288 302 323 327 336 325 354 342 336 333 324 342 353 351 339 3 11 12 20 26 20 18 18 23 23 21 27 16
328 316 323 318 319 321 317 307 308 306 307 302 306 307 310 313 318 324 327 330 351 20 343 329 326 338 351 1 359 13 15 17 13 18 24 19 12 5 350 352 356 359 0
332 318 320 319 322 323 318 313 312 315 306 306 310 310 324 326 313 315 312 339 357 27 345 342 344 351 0 3 9 20 17 16 12 20 16 8 356 328 324 353 353 339 340
320 314 319 327 321 316 314 305 305 313 306 303 315 321 324 323 311 304 319 56 358 64 0 346 356 5 11 9 2 11 14 14 11 4 356 347 348 2 11 1 4 359 11
313 303 318 323 318 315 302 307 311 300 298 322 321 319 323 317 315 335 336 359 358 2 23 355 353 1 2 3 1 4 9 10 11 359 0 0 5 2 5 1 17 350 39
315 321 325 322 320 320 321 316 318 328 329 331 333 333 320 324 331 332 344 4 352 5 32 0 336 352 354 354 356 350 1 6 1 355 358 1 4 4 360 358 7 27 24
294 307 313 317 318 323 327 329 330 334 333 340 342 337 335 336 335 342 347 6 351 23 48 316 301 325 321 331 337 334 335 344 334 352 2 358 353 352 5 5 1 6 12
290 288 291 301 305 307 312 313 307 319 322 324 336 334 336 337 339 353 350 2 343 356 216 266 281 281 284 290 297 293 307 327 334 347 352 352 0 6 6 358 7 355 3
272 292 296 291 291 292 297 303 300 308 305 304 318 327 323 325 343 351 351 219 272 291 265 272 247 257 260 256 265 271 254 289 304 327 331 348 360 28 9 6 356 7 4
240 277 296 297 304 306 303 317 319 325 318 316 322 321 317 326 342 333 324 311 289 269 272 259 256 241 243 242 250 247 271 272 276 276 290 321 342 18 45 18 15 19 1
235 291 293 307 302 301 296 310 303 307 309 311 309 312 325 345 315 311 313 311 303 296 288 262 262 242 228 226 220 225 229 255 234 242 249 260 288 7 52 35 68 44 13
194 223 279 286 301 315 309 292 300 295 298 305 314 313 329 317 314 314 312 308 301 289 279 272 269 247 234 214 209 209 217 228 225 217 223 223 214 193 128 95 23 46 55
196 232 276 278 284 299 306 293 296 294 306 308 314 317 323 321 319 317 315 311 309 303 293 271 262 262 233 220 207 207 210 219 217 184 195 195 193 190 168 158 144 51 13
180 203 244 267 301 301 302 317 316 306 307 310 318 318 314 316 315 313 312 312 312 310 305 297 272 255 251 226 207 206 217 218 179 191 184 173 186 179 158 156 166 170 158
178 195 222 254 290 297 308 310 310 304 308 311 319 317 312 312 313 314 313 313 313 313 313 309 300 283 244 237 221 208 210 220 198 181 172 174 180 176 175 176 162 163 148
188 198 229 230 260 275 288 313 310 311 313 313 313 312 309 311 310 311 314 315 319 317 312 315 305 317 279 233 231 218 206 207 203 191 177 177 183 184 177 184 183 169 167